Hourly Weather Roundup
Issued by NWS Central Illinois

Home | Current Version | Previous Version | Text Only | Print | Product List | Glossary On
Versions: 1 2 3 4 5 6 7 8 9 10 11 12 13 14 15 16 17 18 19 20 21 22 23 24 25 26 27 28 29 30 31 32 33 34 35 36 37 38 39 40 41 42 43 44 45 46 47 48 49 50
276
NZUS43 KILX 062010
HWRILX

AREA WEATHER ROUNDUP
NATIONAL WEATHER SERVICE, LINCOLN IL
200 PM CST TUE DEC 06 2016


CITY           SKY/WX    TMP DP  RH WIND       PRES   REMARKS
BLOOMINGTON    CLOUDY    36  34  92 W15       29.84R FOG     WCI  27
CHAMPAIGN      CLOUDY    38  33  82 NW18      29.84R WCI  28
DANVILLE       CLOUDY    34  33  94 W12       29.79R FOG     WCI  26
DECATUR        CLOUDY    39  34  82 NW16G28   29.86R WCI  30
EFFINGHAM      CLOUDY    39  36  90 W14G24    29.89R WCI  30
FLORA          CLOUDY    40  35  83 NW14G21   29.88R WCI  32
GALESBURG      SUNNY     36  30  78 W16G23    29.89R WCI  26
JACKSONVILLE   CLOUDY    38  31  76 W18       29.92R WCI  29
LACON          CLOUDY    37  31  81 NW14      29.86R WCI  28
LAWRENCEVILLE  CLOUDY    41  36  82 W16       29.84R WCI  33
LITCHFIELD     CLOUDY    38  35  89 NW16G23   29.91R WCI  29
$$


CITY           SKY/WX    TMP DP  RH WIND       PRES   REMARKS
LINCOLN        CLOUDY    39  36  89 NW7       29.88R WCI  34
MACOMB         MOSUNNY   39  29  69 NW15G21   29.93R WCI  30
MATTOON        CLOUDY    37  32  82 NW14      29.85R WCI  28
MT CARMEL AP   CLOUDY    41  36  81 NW13      29.84R WCI  34
OLNEY-NOBLE AP CLOUDY    37  36  93 W16G23    29.88R WCI  28
PARIS          CLOUDY    38  35  89 W17       29.84R WCI  28
PEORIA         PTSUNNY   38  29  70 W15       29.88R WCI  29
PONTIAC        CLOUDY    36  36 100 W17       29.84R FOG     WCI  26
RANTOUL        CLOUDY    38  35  90 NW16      29.83R WCI  29
SPRINGFIELD    CLOUDY    40  36  86 W13       29.90R WCI  32
TAYLORVILLE    CLOUDY    38  35  88 NW13G20   29.89R WCI  30
$$

...REGIONAL REPORTS...


CITY           SKY/WX    TMP DP  RH WIND       PRES   REMARKS
CHICAGO O`HARE CLOUDY    35  31  85 W12       29.77R FOG     WCI  27
KANKAKEE       CLOUDY    34  32  92 W13       29.81R FOG     WCI  25
MOLINE         SUNNY     36  24  62 W13       29.87R WCI  27
MOUNT STERLING MOSUNNY   39  28  63 W16G22    29.92R WCI  30
MOUNT VERNON   NOT AVBL
PITTSFIELD     MOSUNNY   41  30  65 W17       29.94R WCI  32
QUINCY         SUNNY     40  27  59 W15       29.93R WCI  32
ROCKFORD       PTSUNNY   35  29  78 W16G24    29.80S WCI  25
$$


CITY           SKY/WX    TMP DP  RH WIND       PRES   REMARKS
BURLINGTON     SUNNY     37  26  64 W14       29.91R WCI  28
CEDAR RAPIDS   SUNNY     30  22  72 NW20G29   29.87R WCI  17
DES MOINES     MOSUNNY   34  14  43 W20G26    29.93S WCI  23
KIRKSVILLE     SUNNY     38  20  48 W16       29.96S WCI  29
OTTUMWA        SUNNY     35  17  47 W13       29.93S WCI  26
ST LOUIS       CLOUDY    42  34  73 W15G24    29.94R WCI  34
$$


CITY           SKY/WX    TMP DP  RH WIND       PRES   REMARKS
TERRE HAUTE    CLOUDY    41  36  82 NW13      29.82R WCI  34
EVANSVILLE     CLOUDY    43  38  82 NW13G20   29.86R HAZE
INDIANAPOLIS   CLOUDY    43  37  79 W15       29.76R
LAFAYETTE      CLOUDY    37  34  89 W14       29.78R FOG     WCI  28
MADISON        PTSUNNY   34  24  67 W9G18     29.73S WCI  27
MILWAUKEE      CLOUDY    37  31  78 W13G23    29.74R WCI  29
$$






USA.gov is the U.S. government's official web portal to all federal, state and local government web resources and services.